This is the latest recevied weather packets stored in our database for station/object K1BWE-1. If no packets are shown the sender has not sent any weather packets the latest 10 day(s).
| Time | Temp. | Humidity | Pressure | Rain* | Wind** | Luminosity | Snow |
|---|---|---|---|---|---|---|---|
| 1777500249 | 26.67° C | 14% | 1015.3 hPa | 0 mm | - | 288 W/m² | - |
| 1777499945 | 26.67° C | 11% | 1015.5 hPa | 0 mm | - | 281 W/m² | - |
| 1777499642 | 26.67° C | 11% | 1015.5 hPa | 0 mm | - | 299 W/m² | - |
| 1777499339 | 26.67° C | 13% | 1015.5 hPa | 0 mm | - | 294 W/m² | - |
| 1777499037 | 26.67° C | 12% | 1015.6 hPa | 0 mm | - | 285 W/m² | - |
| 1777498732 | 26.67° C | 13% | 1015.6 hPa | 0 mm | - | 317 W/m² | - |
| 1777498429 | 27.22° C | 11% | 1016 hPa | 0 mm | - | 402 W/m² | - |
| 1777498126 | 27.22° C | 12% | 1015.9 hPa | 0 mm | - | 423 W/m² | - |
| 1777497824 | 27.22° C | 11% | 1016 hPa | 0 mm | - | 422 W/m² | - |
| 1777497520 | 27.78° C | 12% | 1016.1 hPa | 0 mm | - | 366 W/m² | - |
| 1777497216 | 27.78° C | 12% | 1015.8 hPa | 0 mm | - | 465 W/m² | - |
| 1777496913 | 28.33° C | 12% | 1016.1 hPa | 0 mm | - | 444 W/m² | - |
| 1777496610 | 28.33° C | 12% | 1016 hPa | 0 mm | - | 604 W/m² | - |
| 1777496306 | 27.78° C | 14% | 1016.2 hPa | 0 mm | - | 694 W/m² | - |
| 1777496002 | 27.78° C | 12% | 1015.9 hPa | 0 mm | - | 468 W/m² | - |
| 1777495698 | 27.22° C | 13% | 1016.3 hPa | 0 mm | - | 592 W/m² | - |
| 1777495395 | 27.78° C | 17% | 1016.1 hPa | 0 mm | - | 427 W/m² | - |
| 1777495091 | 27.78° C | 14% | 1016.2 hPa | 0 mm | - | 624 W/m² | - |
| 1777494789 | 28.33° C | 12% | 1016.1 hPa | 0 mm | - | 625 W/m² | - |
| 1777494485 | 28.33° C | 16% | 1016.2 hPa | 0 mm | - | 543 W/m² | - |
| 1777494182 | 27.78° C | 13% | 1016.3 hPa | 0 mm | - | 827 W/m² | - |
| 1777493879 | 27.78° C | 15% | 1016.6 hPa | 0 mm | - | 707 W/m² | - |
| 1777493577 | 27.22° C | 15% | 1016.3 hPa | 0 mm | - | 730 W/m² | - |
| 1777493274 | 26.67° C | 14% | 1016.4 hPa | 0 mm | - | 564 W/m² | - |
| 1777492970 | 27.22° C | 14% | 1016.4 hPa | 0 mm | - | 795 W/m² | - |
* Rain latest hour (hover to see other rain measurements)
** Current wind speed in m/s (hover to see current wind gust speed)